COSMOS 2251 DEB, 39585

Orbit data source: Space-Track

COSMOS 2251 DEB, 39585 is space debris in LEO originally from a launch on Wed, 16 Jun 1993 UTC launched from the Plesetsk Missile And Space Complex (PKMTR). The debris from Iridium 33, an American commercial communications satellite, has been tracked extensively since its accidental collision with the defunct Russian satellite Cosmos 2251 in 2009. This event, occurring at high speed in low Earth orbit (LEO), generated thousands of pieces of space debris, significantly increasing the risk of further collisions. The Iridium 33 debris cloud has impacted space traffic management and orbital debris mitigation strategies, making it a subject of ongoing study in space situational awareness.

Loading next visibility...
Identifier
39585, 1993-036BUQ
Orbit
LEO
Country
Flag of CISCIS
Related business
Manufacturer
Unknown
Mission
Spacecraft
Bus & Motor
Unknown
Mass
Unknown
Launch date (UTC)
1993-06-16 (33 years ago)
Launch vehicle
Unknown
Launch site
Plesetsk Missile And Space Complex (PKMTR)
Object type
Payload
Rocket body
Debris
Shape & HBR
Unknown shape, 0.1 m
Radar Cross Section
Small (<0.1 m²)

Expand to show TLE details & history
Last TLE update: 1 week ago

TLE from 1 week ago
0 COSMOS 2251 DEB
1 39585U 93036BUQ 26256.38848321  .00000535  00000-0  11634-3 0  9990
2 39585  74.0412 138.2192 0066900 190.7370 169.2372 14.59216303665263
Epoch: 2026-09-13T09:19Z
TLE epoch observation values (Epoch: 2026-09-13T09:19:24.949Z)
Latitude
-0.00005°
Longitude
5.98139°
Altitude
744.856 km
Speed
7.458 km/s
True Right ascension
09h 12m 52s
True Declination
0° 00' 00"
Sunlit
Object was in daylight at epoch
Visualization orbit readout
Latitude
Unknown
Longitude
Unknown
Altitude
Unknown
Speed
Unknown
Apparent Right ascension
Unknown
Apparent Declination
Unknown
Sunlit
N/A
Visualization observer readout
Local Sidereal Time
15:08:30
Azimuth
Unknown
Elevation
Unknown
Doppler factor
Unknown
Orbital elements
Apogee altitude
740.611 km
Perigee altitude
645.995 km
Semi-major axis
7,071.44 km
Eccentricity
0.00669
Inclination
74.0412°
RAAN
138.2192°
Arg. of periapsis
190.737°
True anomaly
169.37919°
Mean anomaly
169.2372°
Eccentric anomaly
169.30831°
Mean motion
3.6499 °/min
Orbital period
98.63 mins
BSTAR
0.00011634

Documentation

Showing up to 5 results
|